Ashtabula, OH

10:25 AM EDT on July 26, 2017 (GMT -0400)
Ashtabula County

Weather History for KHZY - March, 2014

Change the Weather History Date:

Friday, March 14, 2014

  Actual Average (KGKJ) Record (KGKJ)
Temperature  
Mean Temperature 40 °F -  
Max Temperature 55 °F 42 °F 72 °F (1990)
Min Temperature 24 °F 24 °F 5 °F (1960)
Degree Days  
Heating Degree Days 26    
Moisture  
Dew Point 23 °F    
Average Humidity 48    
Maximum Humidity 68    
Minimum Humidity 37    
Precipitation  
Precipitation 0.05 in - - ()
Sea Level Pressure  
Sea Level Pressure 29.84 in    
Wind  
Wind Speed 13 mph (SSW)    
Max Wind Speed 25 mph    
Max Gust Speed 37 mph    
Visibility 10 miles    
Events Rain    
Averages and records for this station are not official NWS values.
T = Trace of Precipitation, MM = Missing Value Source: NWS Daily Summary

Daily Weather History Graph

Daily Weather History Graph

Search for Another Location

Airport or City:

Trip Planner

Search our weather history database for the weather conditions in past years. The results will help you decide how hot, cold, wet, or windy it might be!

Date:

Astronomy

Mar. 14, 2014 Rise Set
Actual Time 7:36 AM EDT 7:28 PM EDT
Civil Twilight 7:08 AM EDT 7:55 PM EDT
Nautical Twilight 6:36 AM EDT 8:28 PM EDT
Astronomical Twilight 6:03 AM EDT 9:01 PM EDT
Moon 5:48 PM EDT (3/14) 6:16 AM EDT (3/14)
Length of Visible Light 12h 47m
Length of Day
11h 51m
Waxing Gibbous, 96% of the Moon is Illuminated
Mar 14
Waxing Gibbous
Mar 16
Full
Mar 23
Last Quarter
Mar 30
New
Apr 7
First Quarter

Hourly Weather History & Observations

Time (EDT) Temp. Windchill Dew Point Humidity Pressure Visibility Wind Dir Wind Speed Gust Speed Precip Events Conditions
12:53 AM 24.1 °F 16.0 °F 9.0 °F 53% 30.08 in 10.0 mi South 6.9 mph - N/A   Overcast
1:53 AM 25.0 °F 14.8 °F 10.9 °F 55% 30.06 in 10.0 mi SSE 10.4 mph - N/A   Overcast
2:53 AM 27.0 °F 17.3 °F 12.9 °F 56% 30.04 in 10.0 mi South 10.4 mph - N/A   Overcast
3:53 AM 28.9 °F 20.4 °F 14.0 °F 54% 30.01 in 10.0 mi South 9.2 mph 20.7 mph N/A   Overcast
4:53 AM 28.9 °F 18.6 °F 14.0 °F 54% 29.99 in 10.0 mi South 12.7 mph - N/A   Overcast
5:53 AM 30.0 °F 20.5 °F 15.1 °F 54% 29.98 in 10.0 mi South 11.5 mph - N/A   Overcast
6:53 AM 30.9 °F 22.2 °F 15.1 °F 52% 29.96 in 10.0 mi South 10.4 mph - N/A   Scattered Clouds
7:53 AM 30.9 °F 21.2 °F 16.0 °F 54% 29.95 in 10.0 mi South 12.7 mph 21.9 mph N/A   Clear
8:53 AM 33.1 °F 22.6 °F 17.1 °F 52% 29.93 in 10.0 mi South 16.1 mph - N/A   Clear
9:53 AM 35.1 °F 24.8 °F 19.0 °F 52% 29.91 in 10.0 mi South 17.3 mph 28.8 mph N/A   Clear
10:53 AM 39.0 °F 29.6 °F 19.9 °F 46% 29.88 in 10.0 mi South 18.4 mph 26.5 mph N/A   Clear
11:53 AM 43.0 °F 35.1 °F 21.9 °F 43% 29.86 in 10.0 mi SSW 17.3 mph 29.9 mph 0.02 in   Clear
12:53 PM 46.0 °F 38.3 °F 24.1 °F 42% 29.82 in 10.0 mi SSW 20.7 mph 29.9 mph N/A   Clear
1:53 PM 48.0 °F - 25.0 °F 41% 29.79 in 10.0 mi SSW 21.9 mph 27.6 mph N/A   Clear
2:53 PM 51.1 °F - 27.0 °F 39% 29.73 in 10.0 mi SSW 17.3 mph 31.1 mph N/A   Clear
3:53 PM 54.0 °F - 28.9 °F 38% 29.69 in 10.0 mi SW 17.3 mph 25.3 mph N/A   Clear
4:53 PM 55.0 °F - 30.0 °F 38% 29.66 in 10.0 mi SW 20.7 mph 28.8 mph N/A   Clear
5:53 PM 55.9 °F - 30.0 °F 37% 29.64 in 10.0 mi SW 17.3 mph 29.9 mph N/A   Partly Cloudy
6:53 PM 55.0 °F - 30.0 °F 38% 29.65 in 10.0 mi SW 17.3 mph 36.8 mph N/A   Mostly Cloudy
7:53 PM 54.0 °F - 30.0 °F 40% 29.66 in 10.0 mi SW 13.8 mph 25.3 mph N/A   Overcast
8:53 PM 53.1 °F - 30.0 °F 41% 29.65 in 10.0 mi SW 12.7 mph - N/A   Overcast
9:53 PM 50.0 °F - 35.1 °F 57% 29.70 in 10.0 mi West 25.3 mph 35.7 mph 0.00 in Rain Light Rain
10:53 PM 46.9 °F - 37.0 °F 68% 29.70 in 10.0 mi West 11.5 mph - 0.02 in Rain Light Rain
11:53 PM 48.0 °F - 32.0 °F 54% 29.71 in 10.0 mi West 17.3 mph 28.8 mph 0.01 in   Overcast